Weather History for KCLL - January, 2014

Change the Weather History Date:

Tuesday, January 14, 2014

  Actual Average Record
Temperature  
Mean Temperature 52 °F 51 °F  
Max Temperature 69 °F 61 °F 80 °F (1923)
Min Temperature 34 °F 41 °F 11 °F (1982)
Degree Days  
Heating Degree Days 13 14  
Month to date heating degree days 226 209  
Since 1 July heating degree days 1044 845  
Cooling Degree Days 0 0  
Month to date cooling degree days 0 0  
Year to date cooling degree days 0 0  
Growing Degree Days 2 (Base 50)    
Moisture  
Dew Point 30 °F    
Average Humidity 48    
Maximum Humidity 75    
Minimum Humidity 21    
Precipitation  
Precipitation 0.00 in 0.10 in 3.23 in (1991)
Month to date precipitation 1.02 1.43  
Year to date precipitation 1.02 1.43  
Sea Level Pressure  
Sea Level Pressure 30.12 in    
Wind  
Wind Speed 8 mph (WSW)    
Max Wind Speed 39 mph    
Max Gust Speed 173 mph    
Visibility 10 miles    
Events      
T = Trace of Precipitation, MM = Missing Value Source: NWS Daily Summary

Daily Weather History Graph

Daily Weather History Graph

Search for Another Location

Airport or City:

Trip Planner

Search our weather history database for the weather conditions in past years. The results will help you decide how hot, cold, wet, or windy it might be!

Date:

Astronomy

Jan. 14, 2014 Rise Set
Actual Time 7:23 AM CST 5:45 PM CST
Civil Twilight 6:57 AM CST 6:12 PM CST
Nautical Twilight 6:27 AM CST 6:41 PM CST
Astronomical Twilight 5:58 AM CST 7:10 PM CST
Moon 4:50 PM CST (1/14) 6:00 AM CST (1/14)
Length of Visible Light 11h 14m
Length of Day
10h 22m
Waxing Gibbous, 98% of the Moon is Illuminated
Jan 14
Waxing Gibbous
Jan 15
Full
Jan 23
Last Quarter
Jan 30
New
Feb 6
First Quarter

Hourly Weather History & Observations

Time (CST) Temp. Windchill Dew Point Humidity Pressure Visibility Wind Dir Wind Speed Gust Speed Precip Events Conditions
12:53 AM 39.0 °F - 30.9 °F 73% 30.10 in 10.0 mi Calm Calm - N/A   Clear
1:53 AM 39.0 °F - 30.0 °F 70% 30.09 in 10.0 mi Calm Calm - N/A   Clear
2:53 AM 39.0 °F - 30.9 °F 73% 30.08 in 10.0 mi Calm Calm - N/A   Clear
3:02 AM 39.2 °F - 30.2 °F 70% 30.09 in 10.0 mi Calm Calm - N/A   Clear
3:53 AM 39.9 °F - 27.0 °F 60% 30.08 in 10.0 mi Calm Calm - N/A   Clear
4:53 AM 37.0 °F - 28.9 °F 73% 30.08 in 10.0 mi Calm Calm - N/A   Clear
5:53 AM 35.1 °F - 28.0 °F 76% 30.09 in 10.0 mi Calm Calm - N/A   Clear
6:53 AM 35.1 °F - 28.0 °F 76% 30.10 in 10.0 mi Calm Calm - N/A   Clear
7:53 AM 37.0 °F - 28.0 °F 70% 30.12 in 10.0 mi Calm Calm - N/A   Clear
8:53 AM 45.0 °F 43.5 °F 32.0 °F 60% 30.13 in 10.0 mi SW 3.5 mph - N/A   Clear
9:53 AM 53.1 °F - 28.9 °F 40% 30.15 in 10.0 mi SSW 6.9 mph - N/A   Clear
10:53 AM 57.9 °F - 30.0 °F 35% 30.14 in 10.0 mi SSW 8.1 mph - N/A   Clear
11:53 AM 62.1 °F - 27.0 °F 26% 30.11 in 10.0 mi SW 12.7 mph - N/A   Clear
12:53 PM 64.9 °F - 25.0 °F 22% 30.06 in 10.0 mi SW 11.5 mph 20.7 mph N/A   Clear
1:53 PM 66.9 °F - 27.0 °F 22% 30.04 in 10.0 mi SSW 10.4 mph 17.3 mph N/A   Clear
2:53 PM 68.0 °F - 26.1 °F 21% 30.03 in 10.0 mi SSW 11.5 mph - N/A   Clear
3:53 PM 68.0 °F - 27.0 °F 21% 30.03 in 10.0 mi SSW 12.7 mph - N/A   Clear
4:53 PM 66.9 °F - 28.9 °F 24% 30.04 in 10.0 mi SSW 6.9 mph - N/A   Clear
5:53 PM 62.1 °F - 33.1 °F 34% 30.06 in 10.0 mi South 3.5 mph - N/A   Clear
6:53 PM 57.0 °F - 33.1 °F 40% 30.11 in 10.0 mi WNW 8.1 mph - N/A   Clear
7:53 PM 60.1 °F - 28.9 °F 31% 30.15 in 10.0 mi North 19.6 mph 27.6 mph N/A   Clear
8:53 PM 55.9 °F - 32.0 °F 40% 30.20 in 10.0 mi North 13.8 mph - N/A   Clear
9:53 PM 55.0 °F - 35.1 °F 47% 30.25 in 10.0 mi North 20.7 mph 27.6 mph N/A   Clear
10:53 PM 53.1 °F - 32.0 °F 45% 30.27 in 10.0 mi North 17.3 mph - N/A   Clear
11:53 PM 51.1 °F - 32.0 °F 48% 30.29 in 10.0 mi North 13.8 mph - N/A   Clear